Tapachula Airport, Mexico

8:14 PM CST on March 23, 2017 (GMT -0600)
Tapachula International

Weather History for MMTP - October, 2012

Change the Weather History Date:

Tuesday, October 9, 2012

  Actual Average Record
Temperature  
Mean Temperature 81 °F -  
Max Temperature 89 °F 85 °F 91 °F (2015)
Min Temperature 73 °F 73 °F 35 °F (2008)
Cooling Degree Days 16    
Growing Degree Days 31 (Base 50)    
Moisture  
Dew Point 74 °F    
Average Humidity 88    
Maximum Humidity 100    
Minimum Humidity 62    
Precipitation  
Precipitation 0.00 in - - ()
Sea Level Pressure  
Sea Level Pressure 29.89 in    
Wind  
Wind Speed 2 mph ()    
Max Wind Speed 12 mph    
Max Gust Speed -    
Visibility 9.4 miles    
Events      
Averages and records for this station are not official NWS values.
T = Trace of Precipitation, MM = Missing Value Source: Averaged Metar Reports

Daily Weather History Graph

Daily Weather History Graph

Search for Another Location

Airport or City:

Trip Planner

Search our weather history database for the weather conditions in past years. The results will help you decide how hot, cold, wet, or windy it might be!

Date:

Astronomy

Oct. 09, 2012 Rise Set
Actual Time 6:59 AM CDT 6:52 PM CDT
Civil Twilight 6:38 AM CDT 7:14 PM CDT
Nautical Twilight 6:13 AM CDT 7:38 PM CDT
Astronomical Twilight 5:48 AM CDT 8:03 PM CDT
Moon 1:31 AM CDT (10/9) 2:29 PM CDT (10/9)
Length of Visible Light 12h 35m
Length of Day
11h 52m
Last Quarter, 36% of the Moon is Illuminated
Oct 9
Last Quarter
Oct 15
New
Oct 21
First Quarter
Oct 29
Full
Nov 6
Last Quarter

Hourly Weather History & Observations

Time (CDT) Temp. Heat Index Dew Point Humidity Pressure Visibility Wind Dir Wind Speed Gust Speed Precip Events Conditions
12:40 AM 73.4 °F - 71.6 °F 94% 29.77 in 8.0 mi Calm Calm - N/A   Overcast
1:40 AM 73.4 °F - 71.6 °F 94% 29.96 in 6.0 mi Calm Calm - N/A   Overcast
2:40 AM 73.4 °F - 71.6 °F 94% 29.91 in 10.0 mi Calm Calm - N/A   Overcast
3:40 AM 73.4 °F - 71.6 °F 94% 29.78 in 10.0 mi Calm Calm - N/A   Overcast
4:40 AM 73.4 °F - 71.6 °F 94% 29.92 in 10.0 mi Calm Calm - N/A   Overcast
5:40 AM 75.2 °F - 73.4 °F 94% 29.91 in 10.0 mi Calm Calm - N/A   Mostly Cloudy
6:40 AM 75.2 °F - 73.4 °F 94% 29.78 in 10.0 mi Calm Calm - N/A   Mostly Cloudy
7:40 AM 73.4 °F - 73.4 °F 100% 29.92 in 10.0 mi East 5.8 mph - N/A   Mostly Cloudy
8:40 AM 77.0 °F - 73.4 °F 89% 29.94 in 10.0 mi East 6.9 mph - N/A   Mostly Cloudy
9:43 AM 80.6 °F 86.2 °F 75.2 °F 84% 29.82 in 10.0 mi East 8.1 mph - N/A   Mostly Cloudy
10:40 AM 82.4 °F 89.5 °F 75.2 °F 79% 29.97 in 10.0 mi Calm Calm - N/A   Mostly Cloudy
11:40 AM 82.4 °F 89.5 °F 75.2 °F 79% 29.98 in 10.0 mi Calm Calm - N/A   Mostly Cloudy
12:40 PM 84.2 °F 94.1 °F 77.0 °F 79% 29.91 in 10.0 mi Calm Calm - N/A   Mostly Cloudy
1:40 PM 89.6 °F 99.8 °F 75.2 °F 62% 29.93 in 10.0 mi Calm Calm - N/A   Mostly Cloudy
2:40 PM 86.0 °F 95.1 °F 75.2 °F 70% 29.90 in 10.0 mi SW 11.5 mph - N/A   Mostly Cloudy
3:40 PM 82.4 °F 92.4 °F 78.8 °F 89% 29.88 in 10.0 mi West 10.4 mph - N/A   Mostly Cloudy
4:01 PM 82.4 °F 92.4 °F 78.8 °F 89% 29.88 in 10.0 mi West 10.4 mph - N/A   Mostly Cloudy
4:40 PM 84.2 °F 94.1 °F 77.0 °F 79% 29.87 in 10.0 mi Calm Calm - N/A   Mostly Cloudy
5:40 PM 82.4 °F 92.4 °F 78.8 °F 89% 29.87 in 10.0 mi Calm Calm - N/A   Mostly Cloudy
6:40 PM 77.0 °F - 75.2 °F 94% 29.82 in 6.0 mi NE 5.8 mph - N/A   Overcast
7:40 PM 75.2 °F - 73.4 °F 94% 29.91 in 8.0 mi Calm Calm - N/A   Overcast
8:40 PM 75.2 °F - 73.4 °F 94% 29.93 in 8.0 mi Calm Calm - N/A   Overcast
9:43 PM 77.0 °F - 73.4 °F 89% 29.80 in 10.0 mi Calm Calm - N/A   Overcast
10:40 PM 75.2 °F - 73.4 °F 94% 29.96 in 10.0 mi Calm Calm - N/A   Overcast
11:40 PM 75.2 °F - 73.4 °F 94% 29.96 in 10.0 mi Calm Calm - N/A   Overcast